LDPE-1

Last updated on Sun Apr 12 2026 00:02:56 GMT+0000 (Coordinated Universal Time)

1 49818U 21118B 26101.10183785 -.00000093 00000+0 00000+0 0 9997 2 49818 5.5241 63.3420 0001374 110.1219 78.2268 0.98948405 15979
UTC large
Height (km)
Speed (km/s)
/
Latitude / Longitude
Inclination (degrees)
Orbital Period (minutes)
Azimuth
Elevation
Range (km)
Doppler Factor

Next 0 passes for location: London (51.5072 / 0.1276)

No passes found over London.
LDPE-1